CZ-2C R/B, 62078

Orbit data source: Space-Track

CZ-2C R/B, 62078 is space debris in SSO originally from a launch on Sun, 24 Nov 2024 UTC launched from the Jiuquan Satellite Launch Center, China (JSC). Debris objects in space refer to the collection of defunct objects orbiting the Earth. Examples of debris include non-operational satellites, rocket bodies, and fragments generated from explosions, collisions, or faulty payload assembly.

Loading next visibility...
Identifier
62078, 2024-218A
Orbit
SSO
Country
Flag of CNCN / PRC
Related business
Manufacturer
CALT
Mission
Spacecraft
Bus & Motor
CZ-2 STAGE 2, Unknown motor
Mass
~3,800 kg wet, ~3,800 kg dry
Launch date (UTC)
2024-11-24 (2 years ago)
Launch vehicle
Unknown
Launch site
Jiuquan Satellite Launch Center, China (JSC)
Object type
Payload
Rocket body
Debris
Shape & HBR
Cyl, 3.7 m
Radar Cross Section
23.715 m², Large (>1 m²)

Expand to show TLE details & history
Last TLE update: 7 hours ago

TLE from 7 hours ago
0 CZ-2C R/B
1 62078U 24218A   26174.92435684  .00005788  00000-0  23356-3 0  9991
2 62078  97.5341 190.4795 0043441 347.9918  12.0279 15.24325173 87487
Epoch: 2026-06-23T22:11Z
TLE epoch observation values (Epoch: 2026-06-23T22:11:04.430Z)
Latitude
-0.00008°
Longitude
-54.37789°
Altitude
466.711 km
Speed
7.649 km/s
True Right ascension
12h 41m 55s
True Declination
0° 00' 00"
Sunlit
Object was in daylight at epoch
Visualization orbit readout
Latitude
Unknown
Longitude
Unknown
Altitude
Unknown
Speed
Unknown
Apparent Right ascension
Unknown
Apparent Declination
Unknown
Sunlit
N/A
Visualization observer readout
Local Sidereal Time
16:37:07
Azimuth
Unknown
Elevation
Unknown
Doppler factor
Unknown
Orbital elements
Apogee altitude
519.613 km
Perigee altitude
459.943 km
Semi-major axis
6,867.915 km
Eccentricity
0.00434
Inclination
97.5341°
RAAN
190.4795°
Arg. of periapsis
347.9918°
True anomaly
12.13219°
Mean anomaly
12.0279°
Eccentric anomaly
12.07999°
Mean motion
3.81334 °/min
Orbital period
94.41 mins
BSTAR
0.00023356
Loading maneuver chart data...
Computing Atmospheric mass density...
Loading historical data...
Loading historical data...
Loading historical data...
Loading historical data...
Loading historical data...
Loading historical data...
Loading historical data...
Other satellites on launch #218 in the year 2024 (2024-11-24 UTC)

Documentation

Showing up to 5 results
|